User: anonymous   Login
Location: Aulus
(42.7909°N, 1.3399°E)
Time: 19:36:01
(UTC+00:00)
Language:

Cosmos 864 Rocket - Orbit

View from above orbital plane
View from above orbital plane
View from above satellite
View from above satellite

Ground track
Ground track

The orbit data is extracted from the following two-line orbital elements,

1  9510U 76108B   25194.18647549  .00000089  00000-0  73356-4 0  9997
2  9510  82.9383 349.9126 0025535 201.7143 158.2935 13.77848386447667
Epoch (UTC): 13 July 2025 04:28:31
Eccentricity: 0.0025535
inclination: 82.9383°
perigee height: 953 km
apogee height: 990 km
right ascension of ascending node: 349.9126°
argument of perigee: 201.7143°
revolutions per day: 13.77848386
mean anomaly at epoch: 158.2935°
orbit number at epoch: 44766

The dashed part of the orbit path shows where the satellite is in the earth's shadow,  

DLR